BTK7582 WARA-WIHH

Flight info

Callsign BTK7582
Flight time 1h 7m
Altitude 36000
Route SBR T2 KALUT T6 KURUS
Aircraft A320/M-SDE3FGHIRWY/LB1

Departure

Time 2026-04-29 06:09
Airport Abdul Rachman Saleh Airport (WARA)

Arrival

Time 2026-04-29 07:16
Airport Halim Perdanakusuma International Airport (WIHH)
Time Latitude Longitude Altitude Speed Heading
2026-04-29 05:48 -7.93704 112.71217 1734 ft 0 kts 256°
2026-04-29 06:01 -7.93703 112.71223 1734 ft 3 kts 257°
2026-04-29 06:01 -7.93698 112.71243 1732 ft 3 kts 257°
2026-04-29 06:01 -7.93694 112.71263 1728 ft 3 kts 253°
2026-04-29 06:01 -7.93691 112.71273 1736 ft 1 kts 214°
2026-04-29 06:02 -7.93683 112.71277 1736 ft 1 kts 174°
2026-04-29 06:02 -7.93675 112.71276 1736 ft 1 kts 169°
2026-04-29 06:02 -7.93667 112.71275 1734 ft 1 kts 166°
2026-04-29 06:02 -7.93662 112.71273 1732 ft 0 kts 166°
2026-04-29 06:04 -7.93668 112.71275 1734 ft 3 kts 166°
2026-04-29 06:04 -7.93686 112.71279 963 ft 2 kts 166°
2026-04-29 06:04 -7.93704 112.71284 1152 ft 8 kts 166°
2026-04-29 06:04 -7.93799 112.71307 1736 ft 9 kts 167°
2026-04-29 06:05 -7.93832 112.71348 1736 ft 9 kts 86°
2026-04-29 06:05 -7.93814 112.71424 1736 ft 12 kts 76°
2026-04-29 06:05 -7.93793 112.71513 1734 ft 14 kts 76°
2026-04-29 06:05 -7.93770 112.71611 1737 ft 14 kts 77°
2026-04-29 06:06 -7.93815 112.71653 1732 ft 10 kts 165°
2026-04-29 06:06 -7.93880 112.71670 1735 ft 9 kts 161°
2026-04-29 06:06 -7.93940 112.71710 1735 ft 11 kts 142°
2026-04-29 06:06 -7.93976 112.71704 1736 ft 4 kts 262°
2026-04-29 06:07 -7.93961 112.71688 1738 ft 3 kts 339°
2026-04-29 06:07 -7.93953 112.71686 1735 ft 0 kts 346°
2026-04-29 06:08 -7.93875 112.71667 1734 ft 43 kts 346°
2026-04-29 06:08 -7.93320 112.71533 1723 ft 117 kts 346°
2026-04-29 06:09 -7.92332 112.71304 1785 ft 169 kts 349°
2026-04-29 06:09 -7.91155 112.71016 2385 ft 178 kts 348°
2026-04-29 06:09 -7.89905 112.70693 2846 ft 195 kts 348°
2026-04-29 06:09 -7.88522 112.70327 3096 ft 218 kts 347°
2026-04-29 06:10 -7.86954 112.70122 3474 ft 238 kts
2026-04-29 06:10 -7.85246 112.70462 3875 ft 263 kts 17°
2026-04-29 06:10 -7.83419 112.70953 4781 ft 276 kts 15°
2026-04-29 06:10 -7.81555 112.71447 5749 ft 280 kts 15°
2026-04-29 06:11 -7.79658 112.71945 6701 ft 284 kts 16°
2026-04-29 06:11 -7.77736 112.72447 7617 ft 285 kts 16°
2026-04-29 06:11 -7.75813 112.72951 8605 ft 286 kts 17°
2026-04-29 06:11 -7.73873 112.73454 9518 ft 290 kts 14°
2026-04-29 06:12 -7.71844 112.73731 10190 ft 303 kts
2026-04-29 06:12 -7.69663 112.73945 10488 ft 327 kts
2026-04-29 06:12 -7.67331 112.74177 10899 ft 344 kts
2026-04-29 06:12 -7.64930 112.74411 11608 ft 349 kts
2026-04-29 06:13 -7.62504 112.74647 12381 ft 352 kts
2026-04-29 06:13 -7.60057 112.74888 13141 ft 355 kts
2026-04-29 06:13 -7.57590 112.75130 13893 ft 357 kts
2026-04-29 06:13 -7.55105 112.75374 14632 ft 360 kts
2026-04-29 06:14 -7.52604 112.75623 15348 ft 362 kts
2026-04-29 06:14 -7.50089 112.75876 16025 ft 365 kts
2026-04-29 06:14 -7.47553 112.76130 16680 ft 368 kts
2026-04-29 06:14 -7.44996 112.76382 17316 ft 371 kts
2026-04-29 06:15 -7.42414 112.76561 17935 ft 374 kts 359°
2026-04-29 06:15 -7.39861 112.76188 18520 ft 379 kts 345°
2026-04-29 06:15 -7.37425 112.75156 19067 ft 385 kts 330°
2026-04-29 06:15 -7.35288 112.73499 19603 ft 391 kts 316°
2026-04-29 06:16 -7.33606 112.71326 20100 ft 397 kts 304°
2026-04-29 06:16 -7.32090 112.68984 20633 ft 401 kts 304°
2026-04-29 06:16 -7.31057 112.67393 20977 ft 403 kts 304°
2026-04-29 06:16 -7.29514 112.65018 21479 ft 407 kts 304°
2026-04-29 06:17 -7.27453 112.61849 22100 ft 412 kts 304°
2026-04-29 06:17 -7.26386 112.60212 22411 ft 414 kts 303°
2026-04-29 06:17 -7.24807 112.57788 22708 ft 422 kts 303°
2026-04-29 06:17 -7.23186 112.55310 23119 ft 426 kts 303°
2026-04-29 06:18 -7.21552 112.52810 23565 ft 429 kts 303°
2026-04-29 06:18 -7.19907 112.50293 24007 ft 432 kts 303°
2026-04-29 06:18 -7.18251 112.47759 24443 ft 434 kts 303°
2026-04-29 06:18 -7.16588 112.45208 24837 ft 437 kts 303°
2026-04-29 06:19 -7.14916 112.42643 25234 ft 440 kts 303°
2026-04-29 06:19 -7.13229 112.40060 25610 ft 443 kts 303°
2026-04-29 06:19 -7.11531 112.37466 25979 ft 445 kts 303°
2026-04-29 06:19 -7.09821 112.34852 26340 ft 448 kts 303°
2026-04-29 06:20 -7.08109 112.32230 26687 ft 450 kts 303°
2026-04-29 06:20 -7.06383 112.29583 27042 ft 453 kts 303°
2026-04-29 06:20 -7.04649 112.26923 27385 ft 456 kts 303°
2026-04-29 06:20 -7.02903 112.24252 27721 ft 458 kts 303°
2026-04-29 06:21 -7.01146 112.21563 28047 ft 460 kts 303°
2026-04-29 06:21 -6.99383 112.18863 28363 ft 463 kts 303°
2026-04-29 06:21 -6.97614 112.16151 28664 ft 465 kts 303°
2026-04-29 06:21 -6.95833 112.13421 28965 ft 467 kts 303°
2026-04-29 06:22 -6.94046 112.10683 29235 ft 470 kts 303°
2026-04-29 06:22 -6.92246 112.07930 29507 ft 472 kts 303°
2026-04-29 06:22 -6.90434 112.05164 29774 ft 474 kts 303°
2026-04-29 06:22 -6.88616 112.02387 30047 ft 476 kts 303°
2026-04-29 06:23 -6.86791 111.99599 30318 ft 478 kts 303°
2026-04-29 06:23 -6.84959 111.96799 30586 ft 480 kts 304°
2026-04-29 06:23 -6.83127 111.93998 30952 ft 478 kts 304°
2026-04-29 06:23 -6.81300 111.91206 31346 ft 477 kts 304°
2026-04-29 06:24 -6.79503 111.88462 31712 ft 476 kts 304°
2026-04-29 06:24 -6.77656 111.85644 32086 ft 475 kts 304°
2026-04-29 06:24 -6.75841 111.82878 32449 ft 474 kts 304°
2026-04-29 06:24 -6.74030 111.80115 32802 ft 473 kts 304°
2026-04-29 06:25 -6.72220 111.77352 33146 ft 472 kts 304°
2026-04-29 06:25 -6.70414 111.74598 33501 ft 471 kts 304°
2026-04-29 06:25 -6.68617 111.71853 33862 ft 470 kts 305°
2026-04-29 06:25 -6.66823 111.69113 34230 ft 468 kts 305°
2026-04-29 06:26 -6.65034 111.66380 34584 ft 467 kts 305°
2026-04-29 06:26 -6.63252 111.63657 34907 ft 466 kts 305°
2026-04-29 06:26 -6.61531 111.60901 35211 ft 466 kts 300°
2026-04-29 06:26 -6.60025 111.58016 35490 ft 465 kts 299°
2026-04-29 06:27 -6.58527 111.55132 35752 ft 465 kts 299°
2026-04-29 06:27 -6.57054 111.52292 35824 ft 465 kts 299°
2026-04-29 06:27 -6.54065 111.46531 35838 ft 464 kts 299°
2026-04-29 06:28 -6.51076 111.40780 35839 ft 464 kts 299°
2026-04-29 06:28 -6.48071 111.34997 35837 ft 464 kts 299°
2026-04-29 06:29 -6.45102 111.29294 35838 ft 464 kts 299°
2026-04-29 06:29 -6.42101 111.23518 35837 ft 470 kts 299°
2026-04-29 06:30 -6.37497 111.14669 35839 ft 479 kts 299°
2026-04-29 06:31 -6.34393 111.08731 35839 ft 480 kts 300°
2026-04-29 06:31 -6.31231 111.02829 35836 ft 479 kts 300°
2026-04-29 06:32 -6.28038 110.96944 35834 ft 479 kts 300°
2026-04-29 06:32 -6.24861 110.91053 35838 ft 480 kts 300°
2026-04-29 06:33 -6.21697 110.85154 35837 ft 480 kts 300°
2026-04-29 06:33 -6.18526 110.79254 35837 ft 480 kts 300°
2026-04-29 06:34 -6.15353 110.73359 35839 ft 480 kts 300°
2026-04-29 06:34 -6.12182 110.67458 35807 ft 480 kts 300°
2026-04-29 06:35 -6.09000 110.61545 35811 ft 481 kts 300°
2026-04-29 06:35 -6.05819 110.55636 35810 ft 481 kts 300°
2026-04-29 06:36 -6.02642 110.49728 35811 ft 481 kts 300°
2026-04-29 06:36 -5.99452 110.43818 35810 ft 481 kts 300°
2026-04-29 06:37 -5.96967 110.37591 35810 ft 484 kts 283°
2026-04-29 06:37 -5.96516 110.30835 35811 ft 486 kts 271°
2026-04-29 06:38 -5.96523 110.24086 35811 ft 487 kts 271°
2026-04-29 06:38 -5.96511 110.17287 35811 ft 487 kts 271°
2026-04-29 06:39 -5.96504 110.10490 35810 ft 487 kts 271°
2026-04-29 06:39 -5.96501 110.03674 35811 ft 490 kts 271°
2026-04-29 06:40 -5.96501 109.96825 35811 ft 491 kts 271°
2026-04-29 06:40 -5.96502 109.89963 35811 ft 491 kts 271°
2026-04-29 06:41 -5.96492 109.83105 35811 ft 491 kts 271°
2026-04-29 06:41 -5.96484 109.76249 35811 ft 491 kts 271°
2026-04-29 06:42 -5.96485 109.69388 35810 ft 491 kts 271°
2026-04-29 06:42 -5.96477 109.62527 35811 ft 491 kts 271°
2026-04-29 06:43 -5.96467 109.55665 35810 ft 491 kts 271°
2026-04-29 06:43 -5.96461 109.48802 35811 ft 491 kts 271°
2026-04-29 06:44 -5.96452 109.41943 35811 ft 491 kts 271°
2026-04-29 06:44 -5.96441 109.35146 35810 ft 488 kts 271°
2026-04-29 06:45 -5.96429 109.28356 35810 ft 486 kts 271°
2026-04-29 06:45 -5.96418 109.21570 35811 ft 485 kts 271°
2026-04-29 06:46 -5.96406 109.14795 35810 ft 485 kts 271°
2026-04-29 06:46 -5.96397 109.08019 35811 ft 486 kts 271°
2026-04-29 06:47 -5.96379 109.01230 35811 ft 485 kts 271°
2026-04-29 06:47 -5.96358 108.94451 35811 ft 485 kts 271°
2026-04-29 06:48 -5.96339 108.87667 35811 ft 485 kts 271°
2026-04-29 06:48 -5.96317 108.80888 35810 ft 485 kts 271°
2026-04-29 06:49 -5.96299 108.74112 35811 ft 485 kts 271°
2026-04-29 06:49 -5.96285 108.67319 35840 ft 488 kts 271°
2026-04-29 06:50 -5.96270 108.60480 35838 ft 490 kts 271°
2026-04-29 06:50 -5.96250 108.53637 35838 ft 491 kts 271°
2026-04-29 06:51 -5.97068 108.46851 35840 ft 491 kts 253°
2026-04-29 06:51 -5.99838 108.40598 35836 ft 492 kts 243°
2026-04-29 06:52 -6.02914 108.34457 35839 ft 492 kts 243°
2026-04-29 06:52 -6.05942 108.28346 35836 ft 492 kts 243°
2026-04-29 06:53 -6.09017 108.22153 35839 ft 492 kts 243°
2026-04-29 06:53 -6.12064 108.16049 35839 ft 492 kts 243°
2026-04-29 06:54 -6.15116 108.09889 35837 ft 492 kts 244°
2026-04-29 06:54 -6.18115 108.03733 35837 ft 489 kts 244°
2026-04-29 06:55 -6.20693 107.97439 35840 ft 487 kts 258°
2026-04-29 06:55 -6.21150 107.94080 35839 ft 485 kts 269°
2026-04-29 06:55 -6.21105 107.90695 35839 ft 485 kts 272°
2026-04-29 06:56 -6.20946 107.83914 35838 ft 485 kts 272°
2026-04-29 06:56 -6.20799 107.77136 35838 ft 485 kts 272°
2026-04-29 06:57 -6.20652 107.70356 35838 ft 485 kts 272°
2026-04-29 06:57 -6.20493 107.63577 35838 ft 485 kts 272°
2026-04-29 06:58 -6.20325 107.56796 35837 ft 485 kts 272°
2026-04-29 06:58 -6.20152 107.50062 35838 ft 485 kts 272°
2026-04-29 06:59 -6.19982 107.43293 35836 ft 481 kts 272°
2026-04-29 06:59 -6.19812 107.36673 35328 ft 471 kts 271°
2026-04-29 06:59 -6.19727 107.33366 33758 ft 476 kts 270°
2026-04-29 07:00 -6.19948 107.30034 32155 ft 480 kts 256°
2026-04-29 07:00 -6.21075 107.26897 30671 ft 478 kts 239°
2026-04-29 07:00 -6.22800 107.24068 29446 ft 472 kts 237°
2026-04-29 07:00 -6.24507 107.21345 29068 ft 447 kts 237°
2026-04-29 07:01 -6.26121 107.18784 28902 ft 421 kts 236°
2026-04-29 07:01 -6.27658 107.16350 28369 ft 406 kts 236°
2026-04-29 07:01 -6.29158 107.13980 27601 ft 399 kts 236°
2026-04-29 07:01 -6.30637 107.11635 26787 ft 394 kts 236°
2026-04-29 07:02 -6.32080 107.09313 25989 ft 389 kts 237°
2026-04-29 07:02 -6.33490 107.07015 25203 ft 384 kts 237°
2026-04-29 07:02 -6.34875 107.04743 24424 ft 379 kts 237°
2026-04-29 07:02 -6.36240 107.02502 23652 ft 373 kts 236°
2026-04-29 07:03 -6.37588 107.00291 22876 ft 369 kts 236°
2026-04-29 07:03 -6.38903 106.98140 22514 ft 353 kts 236°
2026-04-29 07:03 -6.40130 106.96046 22076 ft 342 kts 244°
2026-04-29 07:03 -6.40786 106.93775 21487 ft 338 kts 257°
2026-04-29 07:04 -6.41225 106.91465 20856 ft 335 kts 258°
2026-04-29 07:04 -6.41650 106.89175 20229 ft 332 kts 258°
2026-04-29 07:04 -6.42070 106.86905 19611 ft 329 kts 258°
2026-04-29 07:04 -6.42484 106.84655 19009 ft 326 kts 258°
2026-04-29 07:05 -6.42897 106.82403 18182 ft 330 kts 258°
2026-04-29 07:05 -6.43114 106.80101 17288 ft 336 kts 276°
2026-04-29 07:05 -6.42337 106.77896 16401 ft 340 kts 305°
2026-04-29 07:05 -6.41296 106.76752 15802 ft 342 kts 323°
2026-04-29 07:06 -6.39195 106.75576 14880 ft 344 kts 340°
2026-04-29 07:06 -6.36970 106.74684 13961 ft 346 kts 332°
2026-04-29 07:06 -6.35131 106.73135 13027 ft 348 kts 307°
2026-04-29 07:06 -6.34085 106.70961 12112 ft 347 kts 282°
2026-04-29 07:07 -6.34027 106.68568 11193 ft 343 kts 256°
2026-04-29 07:07 -6.34813 106.66322 10271 ft 340 kts 246°
2026-04-29 07:07 -6.35591 106.64083 9379 ft 339 kts 251°
2026-04-29 07:07 -6.36328 106.61849 8463 ft 335 kts 244°
2026-04-29 07:08 -6.37568 106.59931 7593 ft 329 kts 225°
2026-04-29 07:08 -6.39391 106.58607 6726 ft 322 kts 203°
2026-04-29 07:08 -6.41520 106.58044 5882 ft 315 kts 183°
2026-04-29 07:08 -6.43710 106.58215 5029 ft 321 kts 165°
2026-04-29 07:09 -6.45777 106.59099 4166 ft 328 kts 147°
2026-04-29 07:09 -6.47469 106.60653 3369 ft 333 kts 126°
2026-04-29 07:09 -6.48517 106.62667 3091 ft 319 kts 108°
2026-04-29 07:09 -6.48882 106.64801 2988 ft 301 kts 90°
2026-04-29 07:10 -6.48589 106.66803 3000 ft 281 kts 72°
2026-04-29 07:10 -6.47704 106.68469 3002 ft 263 kts 52°
2026-04-29 07:10 -6.46399 106.69656 3004 ft 246 kts 32°
2026-04-29 07:10 -6.44907 106.70305 3002 ft 230 kts 15°
2026-04-29 07:11 -6.43397 106.70715 3009 ft 222 kts 16°
2026-04-29 07:11 -6.41951 106.71113 3002 ft 209 kts 16°
2026-04-29 07:11 -6.40573 106.71496 3004 ft 202 kts 16°
2026-04-29 07:11 -6.39226 106.71873 3008 ft 201 kts 17°
2026-04-29 07:12 -6.37885 106.72247 3008 ft 200 kts 16°
2026-04-29 07:12 -6.36542 106.72622 3011 ft 201 kts 16°
2026-04-29 07:12 -6.35221 106.73060 3004 ft 200 kts 25°
2026-04-29 07:12 -6.34021 106.73747 3003 ft 199 kts 37°
2026-04-29 07:13 -6.32977 106.74658 3006 ft 198 kts 47°
2026-04-29 07:13 -6.32122 106.75756 2760 ft 204 kts 59°
2026-04-29 07:13 -6.31487 106.77060 2427 ft 211 kts 72°
2026-04-29 07:13 -6.31060 106.78481 2123 ft 214 kts 72°
2026-04-29 07:14 -6.30634 106.79930 1796 ft 219 kts 71°
2026-04-29 07:14 -6.30175 106.81411 1468 ft 222 kts 68°
2026-04-29 07:14 -6.29601 106.82815 1175 ft 210 kts 64°
2026-04-29 07:14 -6.29019 106.84088 915 ft 192 kts 64°
2026-04-29 07:15 -6.28460 106.85238 742 ft 175 kts 62°
2026-04-29 07:15 -6.27975 106.86268 576 ft 154 kts 63°
2026-04-29 07:15 -6.27536 106.87225 287 ft 146 kts 63°
2026-04-29 07:15 -6.27121 106.88120 107 ft 137 kts 64°
2026-04-29 07:16 -6.26756 106.88902 99 ft 106 kts 65°
2026-04-29 07:16 -6.26512 106.89431 97 ft 66 kts 65°
2026-04-29 07:16 -6.26349 106.89785 97 ft 37 kts 65°
2026-04-29 07:16 -6.26248 106.90002 97 ft 33 kts 65°
2026-04-29 07:17 -6.26162 106.90161 97 ft 20 kts 46°
2026-04-29 07:17 -6.26143 106.90204 100 ft 1 kts 177°
2026-04-29 07:17 -6.26164 106.90184 97 ft 13 kts 229°
2026-04-29 07:17 -6.26215 106.90079 97 ft 17 kts 244°
2026-04-29 07:18 -6.26272 106.89955 98 ft 24 kts 245°
2026-04-29 07:18 -6.26349 106.89789 97 ft 28 kts 245°
2026-04-29 07:18 -6.26434 106.89609 96 ft 30 kts 244°
2026-04-29 07:18 -6.26510 106.89442 95 ft 26 kts 245°
2026-04-29 07:19 -6.26575 106.89302 96 ft 18 kts 245°
2026-04-29 07:19 -6.26563 106.89199 96 ft 13 kts 292°
2026-04-29 07:19 -6.26530 106.89115 96 ft 12 kts 290°
2026-04-29 07:19 -6.26502 106.89038 95 ft 11 kts 289°
2026-04-29 07:20 -6.26508 106.88966 95 ft 10 kts 246°
2026-04-29 07:20 -6.26536 106.88905 95 ft 9 kts 245°
2026-04-29 07:20 -6.26561 106.88850 96 ft 8 kts 245°
2026-04-29 07:20 -6.26585 106.88799 95 ft 8 kts 245°
2026-04-29 07:21 -6.26606 106.88753 96 ft 7 kts 245°
2026-04-29 07:21 -6.26627 106.88708 95 ft 8 kts 245°
2026-04-29 07:21 -6.26640 106.88663 96 ft 6 kts 287°
2026-04-29 07:21 -6.26615 106.88645 95 ft 3 kts 336°
2026-04-29 07:22 -6.26601 106.88639 97 ft 1 kts 335°
2026-04-29 07:22 -6.26598 106.88637 96 ft 0 kts 335°